This is the latest recevied weather packets stored in our database for station/object R1ZAAG-14. If no packets are shown the sender has not sent any weather packets the latest 10 day(s).
| Time | Temp. | Humidity | Pressure | Rain* | Wind** | Luminosity | Snow |
|---|---|---|---|---|---|---|---|
| 1777918271 | 11.11° C | 41% | 999.3 hPa | - | - | - | - |
| 1777917376 | 12.22° C | 40% | 999.4 hPa | - | - | - | - |
| 1777917371 | 12.22° C | 40% | 999.4 hPa | - | - | - | - |
| 1777916474 | 12.78° C | 37% | 999.4 hPa | - | - | - | - |
| 1777916470 | 12.78° C | 37% | 999.4 hPa | - | - | - | - |
| 1777915572 | 14.44° C | 33% | 999.5 hPa | - | - | - | - |
| 1777915568 | 14.44° C | 33% | 999.5 hPa | - | - | - | - |
| 1777914672 | 15° C | 33% | 999.5 hPa | - | - | - | - |
| 1777914666 | 15° C | 33% | 999.5 hPa | - | - | - | - |
| 1777913765 | 15° C | 37% | 999.6 hPa | - | - | - | - |
| 1777912863 | 14.44° C | 39% | 999.7 hPa | - | - | - | - |
| 1777911982 | 14.44° C | 38% | 999.8 hPa | - | - | - | - |
| 1777911082 | 11.11° C | 35% | 1000 hPa | - | - | - | - |
| 1777910181 | 13.89° C | 33% | 1000.1 hPa | - | - | - | - |
| 1777909280 | 15° C | 32% | 1000 hPa | - | - | - | - |
| 1777908379 | 15.56° C | 32% | 1000.2 hPa | - | - | - | - |
| 1777907479 | 13.33° C | 34% | 1000.5 hPa | - | - | - | - |
| 1777906578 | 12.78° C | 34% | 1000.5 hPa | - | - | - | - |
| 1777905677 | 16.67° C | 32% | 1000.6 hPa | - | - | - | - |
| 1777904774 | 16.67° C | 33% | 1000.7 hPa | - | - | - | - |
| 1777903874 | 16.11° C | 32% | 1000.8 hPa | - | - | - | - |
| 1777902973 | 16.11° C | 32% | 1000.8 hPa | - | - | - | - |
| 1777902072 | 16.67° C | 32% | 1000.9 hPa | - | - | - | - |
| 1777901171 | 15.56° C | 32% | 1001 hPa | - | - | - | - |
| 1777900271 | 15.56° C | 32% | 1001 hPa | - | - | - | - |
* Rain since midnight (hover to see other rain measurements)
** Current wind speed in m/s (hover to see current wind gust speed)